EW1390 Weather Reports


time (UTC)temp
C
wind
direction
speed
KPH
gust
KPH
rain 1hr
cm
rain 24hr
cm
rain mn
cm
humidity
%
barometer
mb
20260507093047 10 234 0.0 0.0 0.00 0.00 0.00 93 1011.4
20260507091544 10 234 0.0 0.0 0.00 0.00 0.00 93 1011.6
20260507090043 10 234 0.0 0.0 0.00 0.00 0.00 93 1011.7
20260507084543 10 234 0.0 0.0 0.00 0.00 0.00 92 1011.7
20260507083040 10 234 0.0 0.0 0.00 0.00 0.00 92 1011.8
20260507081538 10 234 0.0 0.0 0.00 0.00 0.00 92 1011.8
20260507080039 11 234 0.0 0.0 0.00 0.00 0.00 92 1011.8
20260507074535 11 234 0.0 0.0 0.00 0.00 0.00 92 1011.8
20260507073033 11 234 0.0 0.0 0.00 0.00 0.00 92 1011.8
20260507071530 11 234 0.0 0.0 0.00 0.00 0.00 91 1011.9
20260507070029 11 234 0.0 0.0 0.00 0.00 0.00 91 1011.9
20260507064529 11 234 0.0 0.0 0.00 0.00 0.00 91 1011.9
20260507063031 12 234 0.0 0.0 0.00 0.00 0.00 91 1011.9
20260507061529 12 234 0.0 3.2 0.00 0.00 0.00 90 1011.8
20260507060035 12 234 0.0 0.0 0.00 0.00 0.00 90 1011.8
20260507054526 12 234 0.0 0.0 0.00 0.00 0.00 90 1011.8
20260507053027 12 234 0.0 0.0 0.00 0.00 0.00 89 1011.5
20260507051526 12 234 0.0 1.6 0.00 0.00 0.00 88 1011.7
20260507050034 13 234 0.0 0.0 0.00 0.00 0.00 88 1011.8
20260507044524 13 234 0.0 0.0 0.00 0.00 0.00 87 1011.9
20260507043024 13 234 0.0 0.0 0.00 0.00 0.00 86 1011.9
20260507041538 14 234 0.0 0.0 0.00 0.00 0.00 86 1011.7
20260507040022 14 234 0.0 0.0 0.00 0.00 0.00 84 1011.5
20260507034522 15 234 0.0 0.0 0.00 0.00 0.00 83 1011.3
20260507033022 15 234 0.0 0.0 0.00 0.00 0.00 82 1011.1
20260507031521 16 234 0.0 0.0 0.00 0.00 0.00 80 1011.0
20260507030020 17 234 0.0 0.0 0.00 0.00 0.00 78 1010.9
20260507024520 17 234 0.0 1.6 0.00 0.00 0.00 76 1010.7
20260507023019 18 234 0.0 3.2 0.00 0.00 0.00 72 1010.6
20260507021518 19 254 0.0 3.2 0.00 0.00 0.00 68 1010.5
20260507020021 20 252 0.0 11.3 0.00 0.00 0.00 66 1010.5
20260507014525 21 225 1.6 6.4 0.00 0.00 0.00 62 1010.5
20260507013033 21 221 0.0 6.4 0.00 0.00 0.00 61 1010.4
20260507011530 22 221 0.0 4.8 0.00 0.00 0.00 62 1010.3
20260507010015 22 259 0.0 6.4 0.00 0.00 0.00 61 1010.4
20260507004517 22 251 0.0 9.7 0.00 0.00 0.00 61 1010.5
20260507003013 22 234 1.6 8.0 0.00 0.00 0.00 59 1010.3
20260507001512 22 263 0.0 6.4 0.00 0.00 0.00 61 1010.3
20260507000022 22 219 1.6 6.4 0.00 0.00 0.00 60 1010.4
20260506234510 22 262 1.6 6.4 0.00 0.00 0.00 58 1010.5
20260506233008 22 244 0.0 11.3 0.00 0.00 0.00 60 1010.6
20260506231505 22 226 0.0 6.4 0.00 0.00 0.00 62 1010.8
20260506230002 22 331 1.6 8.0 0.00 0.00 0.00 61 1011.0
20260506224604 22 251 4.8 14.5 0.00 0.00 0.00 60 1011.1
20260506223126 22 248 1.6 8.0 0.00 0.00 0.00 61 1011.3
20260506221602 21 254 3.2 11.3 0.00 0.00 0.00 58 1011.4
20260506220055 21 73 0.0 8.0 0.00 0.00 0.00 60 1011.5
20260506214600 21 30 0.0 6.4 0.00 0.00 0.00 59 1011.9
20260506213052 21 303 1.6 6.4 0.00 0.00 0.00 60 1012.1
20260506211549 21 234 1.6 11.3 0.00 0.00 0.00 60 1012.4
20260506210046 20 16 0.0 6.4 0.00 0.00 0.00 62 1012.4
20260506204544 20 105 1.6 6.4 0.00 0.00 0.00 62 1012.5
20260506203045 20 17 3.2 8.0 0.00 0.00 0.00 63 1012.7
20260506201538 19 205 0.0 6.4 0.00 0.00 0.00 62 1012.8
20260506200051 20 205 0.0 8.0 0.00 0.00 0.00 63 1012.9
20260506194538 19 215 0.0 6.4 0.00 0.00 0.00 67 1013.0
20260506193033 19 232 0.0 4.8 0.00 0.00 0.00 67 1013.2
20260506191533 18 229 1.6 6.4 0.00 0.00 0.00 69 1013.3
20260506190029 18 40 0.0 9.7 0.00 0.00 0.00 69 1013.4
20260506184526 17 360 0.0 6.4 0.00 0.00 0.00 73 1013.6
20260506183025 17 316 3.2 6.4 0.00 0.00 0.00 73 1013.6
20260506181529 17 227 3.2 8.0 0.00 0.00 0.00 74 1013.6
20260506180026 17 234 1.6 8.0 0.00 0.00 0.00 77 1013.7
20260506174514 16 271 0.0 6.4 0.00 0.00 0.00 79 1013.8
20260506173010 15 341 0.0 8.0 0.00 0.00 0.00 81 1013.6
20260506171506 13 179 0.0 6.4 0.00 0.00 0.00 89 1013.7
20260506170003 12 256 0.0 3.2 0.00 0.00 0.00 95 1013.6
20260506164600 12 288 0.0 3.2 0.00 0.00 0.00 96 1013.7
20260506163103 11 24 0.0 4.8 0.00 0.00 0.00 96 1013.7
20260506161558 11 331 0.0 1.6 0.00 0.00 0.00 96 1013.7
20260506160104 10 331 0.0 0.0 0.00 0.00 0.00 96 1013.7
20260506154547 10 330 0.0 0.0 0.00 0.08 0.00 96 1013.7
20260506153044 8 330 0.0 0.0 0.00 0.08 0.00 96 1013.9
20260506151541 8 330 0.0 0.0 0.00 0.08 0.00 96 1014.1
20260506150040 7 330 0.0 0.0 0.00 0.08 0.00 96 1014.0
20260506144540 7 330 0.0 0.0 0.00 0.08 0.00 95 1014.1
20260506143038 6 330 0.0 0.0 0.00 0.08 0.00 95 1014.0
20260506141537 6 330 0.0 0.0 0.00 0.08 0.00 95 1013.9
20260506140042 6 330 0.0 0.0 0.00 0.08 0.00 95 1013.6
20260506134605 6 330 0.0 0.0 0.00 0.13 0.00 95 1013.5
20260506133032 6 330 0.0 0.0 0.00 0.13 0.00 95 1013.3
20260506131532 6 330 0.0 0.0 0.00 0.13 0.00 95 1013.3
20260506130032 6 330 0.0 0.0 0.00 0.13 0.00 95 1013.2
20260506124527 6 331 0.0 0.0 0.00 0.13 0.00 95 1013.0
20260506123026 6 330 0.0 0.0 0.00 0.13 0.00 94 1012.9
20260506121524 6 331 0.0 0.0 0.00 0.13 0.00 94 1012.9
20260506120022 6 330 0.0 0.0 0.00 0.13 0.00 94 1012.8
20260506114531 6 330 0.0 0.0 0.00 0.13 0.00 94 1012.8
20260506113019 6 330 0.0 0.0 0.00 0.13 0.00 94 1012.7
20260506111517 6 331 0.0 0.0 0.00 0.13 0.00 94 1012.7
20260506110017 7 331 0.0 0.0 0.00 0.13 0.00 94 1012.6
20260506104514 7 330 0.0 0.0 0.00 0.15 0.00 94 1012.6
20260506103021 7 330 0.0 0.0 0.00 0.15 0.00 94 1012.6
20260506101511 7 330 0.0 0.0 0.00 0.15 0.00 94 1012.4
20260506100009 7 330 0.0 0.0 0.00 0.15 0.00 94 1012.3
20260506094514 7 330 0.0 0.0 0.00 0.15 0.00 94 1012.2